[[{"header":{"parameterUnit":"m.s-1","parameterCategory":1,"la1":30.2991,"la2":30.254,"lo1":-89.0895,"lo2":-89.0444,"dy":0.0017,"dx":0.0017,"nx":28,"ny":28,"refTime":"2023-11-21T09:00:00:Z","depth":0,"parameterNumber":2,"parameterNumberName":"U-component_of_WINDS"},"data":[0,0,0,0,0,0,0,0,0,0,0,0,0,0,0,0,0,0,0,0,0,0,0,0,0,0,0,0,0,0,0,0,0,0,0,0,0,0,0,0,0,0,0,0,0,0,0,0,0,0,0,0,0,0,0,0,0,0,-0.8325,-0.8325,0,-0.8335,-0.8335,-0.8335,-0.8252,-0.825,-0.8247,-0.8245,-0.8258,-0.826,-0.8263,0,0,0,0,0,0,0,0,0,0,0,0,0,-0.8238,-0.824,-0.8325,-0.8325,-0.8325,-0.8334,-0.8335,-0.8335,-0.8252,-0.8249,-0.8247,-0.8244,-0.8257,-0.826,-0.8263,0,0,0,0,0,0,0,0,0,0,0,0,0,-0.8265,-0.8241,-0.8325,-0.8285,-0.8282,-0.8334,-0.8335,-0.8335,-0.8253,-0.8249,-0.8246,-0.8243,-0.8256,-0.826,-0.8263,-0.8356,0,0,-0.8275,-0.8277,0,0,0,0,0,0,0,0,-0.8263,-0.8268,-0.8291,-0.8288,-0.8284,-0.8288,-0.8309,-0.8342,-0.8254,-0.8264,-0.8245,-0.8241,-0.8271,-0.8273,-0.8283,-0.8357,-0.8357,-0.8275,-0.8278,-0.8279,-0.828,0,0,0,0,0,0,0,-0.8262,-0.8267,-0.8329,-0.8291,-0.8287,-0.8268,-0.8268,-0.8315,-0.8287,-0.8263,-0.8257,-0.8259,-0.8269,-0.8279,-0.8283,-0.8357,-0.8275,-0.8278,-0.8281,-0.8282,-0.8507,-0.8511,0,0,0,0,0,0,-0.8265,-0.8266,-0.8329,-0.8329,-0.8265,-0.8272,-0.8272,-0.8291,-0.8286,-0.8282,-0.8262,-0.8255,-0.8275,-0.8278,-0.8283,-0.8391,-0.8279,-0.8283,-0.8285,-0.8503,-0.8508,-0.8512,0,0,0,0,0,0,-0.8263,-0.8271,-0.8328,-0.8296,-0.8302,-0.8277,-0.8299,-0.8293,-0.8303,-0.8285,-0.828,-0.8278,-0.8272,-0.8277,-0.8338,-0.839,-0.8284,-0.8288,-0.8499,-0.8505,-0.851,-0.8608,0,0,0,0,0,0,-0.8261,-0.8271,-0.8306,-0.8297,-0.8304,-0.8383,-0.8302,-0.8295,-0.831,-0.8301,-0.8299,-0.8296,-0.827,-0.8333,-0.8342,-0.8394,-0.8291,-0.8494,-0.8502,-0.8508,-0.86,-0.8617,-0.8631,0,0,0,0,0,-0.8258,-0.8334,-0.8308,-0.8316,-0.8346,-0.8386,-0.839,-0.8358,-0.8314,-0.8349,-0.8337,-0.8296,-0.8383,-0.834,-0.8349,-0.8403,-0.8491,-0.8499,-0.8508,-0.8594,-0.8613,-0.863,0,0,0,0,0,0,-0.835,-0.8332,-0.8303,-0.8378,-0.8384,-0.8372,-0.8415,-0.838,-0.84,-0.8391,-0.8351,-0.8352,-0.8419,-0.8416,-0.8369,-0.8492,-0.8429,-0.844,-0.8491,-0.851,-0.8525,-0.8525,-0.8294,0,0,0,0,0,-0.8379,-0.8412,-0.8395,-0.8462,-0.8467,-0.8441,-0.8457,-0.8432,-0.8437,-0.844,-0.8432,-0.844,-0.8469,-0.8489,-0.8515,-0.8599,-0.8598,-0.864,-0.8655,-0.8668,-0.8678,-0.8723,-0.8742,-0.8539,-0.8539,-0.8539,0,0,-0.8439,-0.8433,-0.8457,-0.8481,-0.8483,-0.8519,-0.8444,-0.8485,-0.8512,-0.8446,-0.8503,-0.8498,-0.8504,-0.8577,-0.8608,-0.8577,-0.8733,-0.8678,-0.8688,-0.8692,-0.8733,-0.8752,-0.877,-0.8545,-0.8544,-0.8543,0,0,-0.8568,-0.8566,-0.8623,-0.8625,-0.8629,-0.861,-0.8624,-0.8617,-0.8611,-0.8667,-0.8618,-0.8649,-0.87,-0.8706,-0.8716,-0.8845,-0.8808,-0.8855,-0.8934,-0.8978,-0.8994,-0.9008,-0.9055,-0.9073,-0.8865,-0.8865,-0.8865,0,-0.8643,-0.8694,-0.8656,-0.8701,-0.8713,-0.8653,-0.8711,-0.8715,-0.8728,-0.8738,-0.8701,-0.8763,-0.8763,-0.8837,-0.8868,-0.8878,-0.8893,-0.8856,-0.8995,-0.9009,-0.9021,-0.9066,-0.9083,-0.8871,-0.887,-0.8869,-0.8869,0,-0.8787,-0.8823,-0.8869,-0.8881,-0.8897,-0.8948,-0.8918,-0.894,-0.8913,-0.8899,-0.8957,-0.8954,-0.8978,-0.8993,-0.8967,-0.9063,-0.9043,-0.9002,-0.8938,-0.9047,-0.9088,-0.9105,-0.8879,-0.8877,-0.8875,-0.8874,0,0,-0.8976,-0.8965,-0.8982,-0.8987,-0.8985,-0.9013,-0.9061,-0.9083,-0.9103,-0.9113,-0.9153,-0.9196,-0.9157,-0.9168,-0.9142,-0.9181,-0.9284,-0.9134,-0.9134,-0.9163,-0.939,-0.9423,-0.9443,-0.9258,-0.9261,-0.9264,-0.939,0,-0.9102,-0.9183,-0.9149,-0.9234,-0.9267,-0.921,-0.9252,-0.9256,-0.9243,-0.9271,-0.9257,-0.9289,-0.9234,-0.9241,-0.9276,-0.9264,-0.933,-0.9254,-0.9296,-0.9298,-0.9299,-0.9465,-0.9499,-0.9619,-0.9406,-0.9409,-0.9411,0,-0.9261,-0.9276,-0.9363,-0.9355,-0.9368,-0.9406,-0.9423,-0.945,-0.9453,-0.9441,-0.9453,-0.9418,-0.9465,-0.94,-0.9465,-0.9414,-0.9429,-0.9426,-0.943,-0.9434,-0.9363,-0.9475,-0.9656,-0.9675,-0.9435,-0.9434,-0.9432,0,-0.9391,-0.9433,-0.9491,-0.9496,-0.9488,-0.9516,-0.9514,-0.9514,-0.9529,-0.9544,-0.9554,-0.9575,-0.9587,-0.9604,-0.9576,-0.9531,-0.9645,-0.9578,-0.9638,-0.9639,-0.9666,-0.9665,-0.9854,-0.9673,-0.9673,-0.9673,-0.9672,0,-0.9537,-0.9593,-0.9549,-0.9585,-0.9646,-0.9607,-0.9669,-0.966,-0.966,-0.9694,-0.9645,-0.9678,-0.9638,-0.9667,-0.9645,-0.9703,-0.9708,-0.9701,-0.9695,-0.9706,-0.9707,-0.9717,-0.9708,-0.9677,-0.9676,-0.9675,-0.9674,0,-0.9694,-0.9667,-0.9726,-0.9713,-0.9711,-0.9757,-0.9745,-0.9778,-0.9761,-0.9805,-0.9812,-0.9787,-0.9818,-0.9791,-0.9822,-0.9807,-0.9884,-0.9865,-0.9883,-0.9878,-0.994,-0.9935,-1.0143,-1.0169,-0.997,-0.9972,-0.9974,0,-0.979,-0.9831,-0.9822,-0.984,-0.9841,-0.9871,-0.9886,-0.9849,-0.9866,-0.9872,-0.9905,-0.9932,-0.9952,-1.0005,-0.999,-1.0013,-0.9995,-1.0066,-0.9998,-1.0008,-0.9998,-0.9996,-1.0,-1.0081,-1.0083,-1.0085,-1.0087,0,-0.9963,-0.9947,-0.997,-0.9988,-1.0007,-1.002,-1.0029,-1.0047,-1.0008,-1.0031,-1.0061,-1.0077,-1.0107,-1.0135,-1.0153,-1.0151,-1.0114,-1.0107,-1.0123,-1.0136,-1.0145,-1.0142,-0.9922,-1.0104,-1.0102,-1.0101,-1.01,-1.0099,-1.0093,-1.0127,-1.0126,-1.0153,-1.0155,-1.0164,-1.0194,-1.0181,-1.0206,-1.0227,-1.0203,-1.0241,-1.0242,-1.0262,-1.0265,-1.0295,-1.0265,-1.0287,-1.0293,-1.03,-1.0309,-1.0139,-1.0298,-1.0297,-1.0297,-1.0296,-1.0296,0,-1.0264,-1.026,-1.0285,-1.0299,-1.032,-1.028,-1.0288,-1.0309,-1.0342,-1.0346,-1.0366,-1.0402,-1.0428,-1.0414,-1.0437,-1.0463,-1.0447,-1.0471,-1.0469,-1.047,-1.0334,-1.0319,-1.0484,-1.0484,-1.0484,-1.0484,-1.0484,-1.0484,-1.0356,-1.0412,-1.0396,-1.0453,-1.0448,-1.0484,-1.0492,-1.05,-1.0503,-1.0545,-1.0566,-1.0556,-1.0553,-1.0575,-1.0597,-1.0592,-1.0604,-1.0635,-1.0624,-1.0498,-1.0479,-1.0462,-1.0448,-1.0637,-1.0638,-1.0758,-1.0759,-1.076]},{"header":{"parameterUnit":"m.s-1","parameterCategory":1,"la1":30.2991,"la2":30.254,"lo1":-89.0895,"lo2":-89.0444,"dy":0.0017,"dx":0.0017,"nx":28,"ny":28,"refTime":"2023-11-21T09:00:00:Z","depth":0,"parameterNumber":3,"parameterNumberName":"V-component_of_WINDS"},"data":[0,0,0,0,0,0,0,0,0,0,0,0,0,0,0,0,0,0,0,0,0,0,0,0,0,0,0,0,0,0,0,0,0,0,0,0,0,0,0,0,0,0,0,0,0,0,0,0,0,0,0,0,0,0,0,0,0,0,-5.5251,-5.5252,0,-5.5318,-5.5319,-5.5319,-5.5205,-5.5201,-5.5198,-5.5194,-5.5259,-5.5264,-5.527,0,0,0,0,0,0,0,0,0,0,0,0,0,-5.5022,-5.5027,-5.5251,-5.5252,-5.5253,-5.5318,-5.5319,-5.532,-5.5206,-5.5201,-5.5197,-5.5192,-5.5257,-5.5264,-5.527,0,0,0,0,0,0,0,0,0,0,0,0,0,-5.5108,-5.5028,-5.5251,-5.5204,-5.52,-5.5318,-5.5319,-5.532,-5.5207,-5.5201,-5.5195,-5.519,-5.5255,-5.5263,-5.5271,-5.5436,0,0,-5.5295,-5.5299,0,0,0,0,0,0,0,0,-5.5104,-5.5117,-5.521,-5.5208,-5.5204,-5.5247,-5.5262,-5.5359,-5.5208,-5.5204,-5.5194,-5.5187,-5.526,-5.5267,-5.5292,-5.5439,-5.5442,-5.5296,-5.5301,-5.5304,-5.5307,0,0,0,0,0,0,0,-5.5098,-5.5113,-5.5277,-5.5212,-5.5208,-5.5178,-5.5184,-5.5279,-5.5264,-5.5204,-5.5196,-5.5206,-5.5257,-5.5285,-5.5293,-5.5443,-5.5296,-5.5303,-5.5308,-5.5311,-5.5727,-5.5733,0,0,0,0,0,0,-5.5098,-5.5109,-5.5275,-5.5279,-5.5139,-5.5187,-5.5194,-5.5239,-5.5262,-5.526,-5.5211,-5.52,-5.5274,-5.5284,-5.5295,-5.5489,-5.5304,-5.5312,-5.5316,-5.5721,-5.5729,-5.5735,0,0,0,0,0,0,-5.5094,-5.5114,-5.5273,-5.5192,-5.521,-5.5197,-5.5249,-5.5244,-5.5271,-5.5267,-5.5263,-5.5242,-5.527,-5.5283,-5.5402,-5.5489,-5.5315,-5.5323,-5.5714,-5.5723,-5.5732,-5.5879,0,0,0,0,0,0,-5.5087,-5.5113,-5.5177,-5.5194,-5.5215,-5.538,-5.5255,-5.5249,-5.5286,-5.5273,-5.5296,-5.5294,-5.5266,-5.539,-5.541,-5.5497,-5.5329,-5.5706,-5.5718,-5.5729,-5.5866,-5.5892,-5.5914,0,0,0,0,0,-5.508,-5.5215,-5.518,-5.5201,-5.5294,-5.5385,-5.5397,-5.5363,-5.5293,-5.5356,-5.5353,-5.5293,-5.5477,-5.5403,-5.5424,-5.5515,-5.57,-5.5714,-5.5728,-5.5855,-5.5887,-5.5914,0,0,0,0,0,0,-5.5206,-5.5216,-5.5178,-5.5323,-5.5355,-5.5366,-5.5444,-5.5398,-5.5449,-5.5434,-5.5389,-5.5395,-5.5523,-5.553,-5.5449,-5.5676,-5.5576,-5.5595,-5.5666,-5.5696,-5.572,-5.5715,-5.5336,0,0,0,0,0,-5.5251,-5.5326,-5.533,-5.5457,-5.5475,-5.5458,-5.5496,-5.5467,-5.5497,-5.551,-5.5515,-5.5546,-5.561,-5.5653,-5.5712,-5.5867,-5.5869,-5.5939,-5.5964,-5.5983,-5.6,-5.6081,-5.6112,-5.5782,-5.5782,-5.5781,0,0,-5.5345,-5.5359,-5.5409,-5.5483,-5.5504,-5.5581,-5.5469,-5.5555,-5.5612,-5.5522,-5.5634,-5.564,-5.5671,-5.5808,-5.5868,-5.5818,-5.6092,-5.6001,-5.6017,-5.6023,-5.6099,-5.613,-5.6158,-5.5791,-5.5789,-5.5788,0,0,-5.5554,-5.5573,-5.5681,-5.5704,-5.5738,-5.5725,-5.5751,-5.577,-5.577,-5.5883,-5.5817,-5.5882,-5.5995,-5.6019,-5.6046,-5.6265,-5.6211,-5.6285,-5.6411,-5.6491,-5.6517,-5.654,-5.6617,-5.6645,-5.6302,-5.6303,-5.6303,0,-5.5665,-5.578,-5.5742,-5.5833,-5.5867,-5.5791,-5.5899,-5.5923,-5.5974,-5.5999,-5.5942,-5.6081,-5.6097,-5.6238,-5.6291,-5.6316,-5.6344,-5.6282,-5.6516,-5.6539,-5.656,-5.6633,-5.6662,-5.6311,-5.631,-5.6309,-5.6309,0,-5.5915,-5.5995,-5.6078,-5.613,-5.6173,-5.6273,-5.6249,-5.6297,-5.6265,-5.6258,-5.6373,-5.6389,-5.6449,-5.6481,-5.6449,-5.6618,-5.6585,-5.6524,-5.6423,-5.6601,-5.6668,-5.6696,-5.6324,-5.6321,-5.6318,-5.6316,0,0,-5.6206,-5.6236,-5.6267,-5.6289,-5.632,-5.6381,-5.6476,-5.6536,-5.6578,-5.6616,-5.6694,-5.679,-5.6733,-5.6764,-5.6735,-5.6805,-5.6976,-5.6734,-5.6734,-5.6778,-5.7161,-5.7207,-5.7241,-5.6941,-5.6946,-5.695,-5.7159,0,-5.6413,-5.6579,-5.6548,-5.6708,-5.6782,-5.671,-5.6793,-5.682,-5.6816,-5.6877,-5.6871,-5.694,-5.686,-5.6879,-5.6945,-5.6942,-5.7053,-5.6926,-5.7012,-5.7016,-5.7006,-5.7276,-5.7325,-5.7521,-5.7185,-5.7189,-5.7193,0,-5.6677,-5.6726,-5.6895,-5.6914,-5.6943,-5.7018,-5.7071,-5.713,-5.7159,-5.7151,-5.7186,-5.7143,-5.7237,-5.7136,-5.7263,-5.7178,-5.7211,-5.7215,-5.7221,-5.7227,-5.7115,-5.7289,-5.7582,-5.7612,-5.7234,-5.7231,-5.7228,0,-5.6872,-5.6979,-5.7094,-5.7115,-5.714,-5.7195,-5.7207,-5.7231,-5.7269,-5.7314,-5.7338,-5.7394,-5.7424,-5.7468,-5.7441,-5.737,-5.7573,-5.7469,-5.7568,-5.7569,-5.7613,-5.7611,-5.7916,-5.7636,-5.7636,-5.7635,-5.7635,0,-5.7107,-5.7213,-5.7181,-5.7252,-5.7368,-5.733,-5.7446,-5.745,-5.7472,-5.754,-5.7482,-5.7547,-5.7508,-5.7571,-5.755,-5.7658,-5.7672,-5.7668,-5.7661,-5.7673,-5.7674,-5.7693,-5.7679,-5.7643,-5.7641,-5.764,-5.7638,0,-5.7343,-5.7327,-5.7447,-5.7461,-5.7467,-5.7552,-5.7563,-5.7628,-5.762,-5.7708,-5.7727,-5.7713,-5.7784,-5.7761,-5.7837,-5.7823,-5.796,-5.7936,-5.7951,-5.7945,-5.8044,-5.8035,-5.8372,-5.8414,-5.8108,-5.8111,-5.8114,0,-5.7494,-5.7574,-5.7597,-5.764,-5.7657,-5.7726,-5.7765,-5.7731,-5.7773,-5.7813,-5.7873,-5.7938,-5.7989,-5.8104,-5.8101,-5.8158,-5.8134,-5.8248,-5.8142,-5.8152,-5.8135,-5.813,-5.8138,-5.8269,-5.8273,-5.8276,-5.8278,0,-5.7763,-5.7751,-5.7809,-5.7866,-5.7914,-5.7957,-5.7993,-5.8031,-5.7999,-5.805,-5.8122,-5.8161,-5.8238,-5.8304,-5.8356,-5.8367,-5.8318,-5.8312,-5.8337,-5.835,-5.8355,-5.8353,-5.8008,-5.8304,-5.8301,-5.8299,-5.8298,-5.8297,-5.796,-5.8028,-5.8055,-5.8122,-5.8146,-5.8182,-5.8244,-5.8244,-5.8303,-5.8364,-5.834,-5.8423,-5.8449,-5.8513,-5.8532,-5.8595,-5.8551,-5.8588,-5.8598,-5.8607,-5.862,-5.8346,-5.8604,-5.8604,-5.8603,-5.8602,-5.8602,0,-5.8226,-5.824,-5.8302,-5.8356,-5.8409,-5.8358,-5.8396,-5.8443,-5.8517,-5.8546,-5.8597,-5.868,-5.8743,-5.8744,-5.8802,-5.8853,-5.8831,-5.8869,-5.8865,-5.8868,-5.8656,-5.8628,-5.8885,-5.8885,-5.8885,-5.8885,-5.8885,-5.8885,-5.837,-5.8481,-5.8472,-5.8595,-5.8607,-5.8688,-5.8714,-5.8747,-5.8769,-5.8864,-5.8917,-5.8918,-5.8935,-5.8995,-5.905,-5.9048,-5.9072,-5.9119,-5.9109,-5.8911,-5.8883,-5.8856,-5.8829,-5.9124,-5.9125,-5.9315,-5.9317,-5.9318]}]]